Location: Delmar
(42.6220°N, 73.8326°W)
Time: 05:41:27
(UTC+00:00)

NOSS 3-4 (A) - Pass Details

Date: 29 October 2020
Orbit: 885 x 1327 km, 63.4° (Epoch: 06 November)

Event Time Altitude Azimuth Distance (km) Brightness Sun altitude
Rises 23:16:03 0° 326° (NNW) 3,785 7.0 -16.1°
Reaches altitude 10° 23:18:50 10° 335° (NNW) 2,896 6.2 -16.6°
Maximum altitude 23:25:10 37° 42° (NE) 1,720 4.4 -17.8°
Enters shadow 23:28:04 27° 83° (E) 2,082 4.6 -18.3°
